DW9620 Weather Reports


time (UTC)temp
C
wind
direction
speed
KPH
gust
KPH
rain 1hr
cm
rain 24hr
cm
rain mn
cm
humidity
%
barometer
mb
20260508200504 19 245 16.1 27.4 0.00 0.00 0.00 41 1009.9
20260508200004 20 261 11.3 24.1 0.00 0.00 0.00 42 1009.9
20260508195504 20 258 14.5 25.7 0.00 0.00 0.00 41 1009.9
20260508195004 20 287 14.5 32.2 0.00 0.00 0.00 41 1009.9
20260508194504 20 260 24.1 32.2 0.00 0.00 0.00 38 1010.0
20260508194004 20 250 12.9 32.2 0.00 0.00 0.00 41 1010.1
20260508193504 20 229 19.3 33.8 0.00 0.00 0.00 40 1010.1
20260508192004 21 251 22.5 33.8 0.00 0.00 0.00 39 1010.3
20260508191004 21 242 20.9 37.0 0.00 0.00 0.00 41 1010.5
20260508190503 20 231 22.5 33.8 0.00 0.00 0.00 42 1010.7
20260508190004 20 270 20.9 33.8 0.00 0.00 0.00 42 1010.7
20260508185504 20 220 16.1 35.4 0.00 0.00 0.00 42 1010.9
20260508185004 20 251 20.9 35.4 0.00 0.00 0.00 40 1011.0
20260508184504 21 242 20.9 35.4 0.00 0.00 0.00 43 1010.9
20260508184004 20 227 11.3 27.4 0.00 0.00 0.00 44 1011.2
20260508183503 20 225 14.5 27.4 0.00 0.00 0.00 44 1011.2
20260508182504 20 225 19.3 32.2 0.00 0.00 0.00 44 1011.4
20260508182004 20 240 20.9 32.2 0.00 0.00 0.00 41 1011.5
20260508181505 19 253 20.9 35.4 0.00 0.00 0.00 44 1011.4
20260508181004 19 248 20.9 35.4 0.00 0.00 0.00 42 1011.6
20260508180004 19 232 11.3 24.1 0.00 0.00 0.00 45 1011.6
20260508175504 18 265 9.7 29.0 0.00 0.00 0.00 46 1011.9
20260508175004 18 262 14.5 32.2 0.00 0.00 0.00 42 1011.9
20260508174504 18 233 19.3 35.4 0.00 0.00 0.00 43 1012.2
20260508174004 19 288 20.9 35.4 0.00 0.00 0.00 42 1012.2
20260508173504 20 239 16.1 25.7 0.00 0.00 0.00 45 1012.2
20260508173004 20 228 12.9 37.0 0.00 0.00 0.00 46 1012.3
20260508172504 20 290 16.1 37.0 0.00 0.00 0.00 41 1012.3
20260508172004 20 219 22.5 37.0 0.00 0.00 0.00 44 1012.3
20260508171004 19 245 20.9 32.2 0.00 0.00 0.00 44 1012.4
20260508170504 19 211 20.9 32.2 0.00 0.00 0.00 48 1012.6
20260508165504 19 227 12.9 25.7 0.00 0.00 0.00 49 1012.8
20260508165004 19 304 14.5 32.2 0.00 0.00 0.00 46 1012.8
20260508164504 18 228 19.3 35.4 0.00 0.00 0.00 50 1012.9
20260508164004 18 243 25.7 35.4 0.00 0.00 0.00 44 1012.9
20260508163004 18 242 12.9 33.8 0.00 0.00 0.00 50 1013.2
20260508162504 18 261 14.5 33.8 0.00 0.00 0.00 48 1013.2
20260508162004 17 290 20.9 33.8 0.00 0.00 0.00 48 1013.2
20260508161504 17 289 20.9 33.8 0.00 0.00 0.00 46 1013.2
20260508161004 17 238 24.1 33.8 0.00 0.00 0.00 47 1013.3
20260508160504 17 255 19.3 33.8 0.00 0.00 0.00 49 1013.3
20260508155504 17 263 17.7 33.8 0.00 0.00 0.00 48 1013.3
20260508154504 17 253 19.3 37.0 0.00 0.00 0.00 50 1013.4
20260508154004 17 259 19.3 37.0 0.00 0.00 0.00 46 1013.6
20260508153504 17 252 20.9 35.4 0.00 0.00 0.00 51 1013.6
20260508152004 17 278 14.5 32.2 0.00 0.00 0.00 48 1013.8
20260508151504 17 262 17.7 32.2 0.00 0.00 0.00 47 1014.0
20260508151004 16 233 16.1 29.0 0.00 0.00 0.00 52 1014.0
20260508150005 16 259 14.5 22.5 0.00 0.00 0.00 51 1013.9
20260508145504 16 270 9.7 32.2 0.00 0.00 0.00 53 1013.8
20260508145004 15 261 12.9 32.2 0.00 0.00 0.00 54 1014.0
20260508144505 15 266 19.3 32.2 0.00 0.00 0.00 52 1014.2
20260508144004 15 295 19.3 32.2 0.00 0.00 0.00 52 1014.2
20260508143504 15 278 20.9 33.8 0.00 0.00 0.00 52 1014.2
20260508142504 15 245 16.1 24.1 0.00 0.00 0.00 53 1014.3
20260508142004 15 245 11.3 22.5 0.00 0.00 0.00 55 1014.3
20260508141504 14 231 12.9 22.5 0.00 0.00 0.00 54 1014.3
20260508141004 14 258 12.9 25.7 0.00 0.00 0.00 55 1014.2
20260508140504 14 222 8.0 27.4 0.00 0.00 0.00 57 1014.3
20260508140004 14 262 12.9 27.4 0.00 0.00 0.00 57 1014.4
20260508135504 13 230 11.3 27.4 0.00 0.00 0.00 57 1014.4
20260508135004 13 218 11.3 25.7 0.00 0.00 0.00 58 1014.4
20260508134504 13 255 14.5 25.7 0.00 0.00 0.00 58 1014.3
20260508134004 13 250 11.3 24.1 0.00 0.00 0.00 60 1014.3
20260508133504 12 259 11.3 19.3 0.00 0.00 0.00 60 1014.3
20260508133004 12 238 11.3 19.3 0.00 0.00 0.00 59 1014.4
20260508132504 12 227 11.3 20.9 0.00 0.00 0.00 63 1014.3
20260508132004 11 259 12.9 20.9 0.00 0.00 0.00 62 1014.3
20260508131504 11 234 9.7 16.1 0.00 0.00 0.00 63 1014.3
20260508131004 11 238 8.0 19.3 0.00 0.00 0.00 65 1014.2
20260508130004 10 202 9.7 19.3 0.00 0.00 0.00 68 1014.2
20260508125004 10 219 8.0 14.5 0.00 0.00 0.00 66 1014.3
20260508124504 10 217 9.7 12.9 0.00 0.00 0.00 67 1014.2
20260508123504 10 219 8.0 12.9 0.00 0.00 0.00 67 1014.1
20260508123004 10 209 8.0 14.5 0.00 0.00 0.00 68 1014.1
20260508122503 9 203 6.4 14.5 0.00 0.00 0.00 69 1014.2
20260508122004 9 226 8.0 14.5 0.00 0.00 0.00 69 1014.3
20260508121504 9 219 8.0 11.3 0.00 0.00 0.00 72 1014.2
20260508121004 8 198 6.4 11.3 0.00 0.00 0.00 72 1014.2
20260508120504 8 211 4.8 9.7 0.00 0.00 0.00 72 1014.1
20260508120004 8 193 4.8 9.7 0.00 0.00 0.00 73 1014.1
20260508115504 7 223 3.2 4.8 0.00 0.00 0.00 73 1014.0
20260508115004 7 232 1.6 4.8 0.00 0.00 0.00 74 1013.9
20260508114504 7 208 3.2 4.8 0.00 0.00 0.00 74 1013.8
20260508113504 7 209 3.2 8.0 0.00 0.00 0.00 74 1013.8
20260508113005 7 220 4.8 8.0 0.00 0.00 0.00 74 1013.7
20260508112504 7 217 4.8 8.0 0.00 0.00 0.00 75 1013.7
20260508112004 7 213 3.2 8.0 0.00 0.00 0.00 75 1013.7
20260508111504 6 200 1.6 8.0 0.00 0.00 0.00 75 1013.6
20260508111004 6 195 3.2 8.0 0.00 0.00 0.00 76 1013.7
20260508110503 6 197 4.8 8.0 0.00 0.00 0.00 77 1013.8
20260508110004 6 192 1.6 4.8 0.00 0.00 0.00 77 1013.7
20260508105504 6 170 1.6 3.2 0.00 0.00 0.00 78 1013.7
20260508105004 6 235 0.0 0.0 0.00 0.00 0.00 78 1013.6
20260508104504 6 235 0.0 0.0 0.00 0.00 0.00 78 1013.6
20260508104004 6 182 0.0 0.0 0.00 0.00 0.00 79 1013.6
20260508103504 6 150 0.0 1.6 0.00 0.00 0.00 79 1013.6
20260508103004 5 200 0.0 1.6 0.00 0.00 0.00 80 1013.6
20260508102504 5 205 0.0 1.6 0.00 0.00 0.00 80 1013.5
20260508102004 5 212 0.0 0.0 0.00 0.00 0.00 80 1013.4
20260508101504 5 212 0.0 0.0 0.00 0.00 0.00 80 1013.4
20260508100504 5 212 0.0 0.0 0.00 0.00 0.00 80 1013.4
20260508095504 5 212 0.0 0.0 0.00 0.03 0.00 81 1013.4
20260508095004 5 212 0.0 0.0 0.00 0.03 0.00 80 1013.5
20260508094504 5 212 0.0 0.0 0.00 0.03 0.00 80 1013.5
20260508094004 5 212 0.0 0.0 0.00 0.03 0.00 80 1013.5
20260508093504 5 212 0.0 0.0 0.00 0.03 0.00 80 1013.6
20260508093004 5 212 0.0 0.0 0.00 0.03 0.00 79 1013.6
20260508092504 5 212 0.0 0.0 0.00 0.03 0.00 79 1013.6
20260508092004 5 212 0.0 0.0 0.00 0.03 0.00 79 1013.6
20260508091504 5 212 0.0 0.0 0.00 0.03 0.00 78 1013.6
20260508091004 5 212 0.0 0.0 0.00 0.03 0.00 78 1013.6
20260508090005 5 212 0.0 0.0 0.00 0.03 0.00 78 1013.4
20260508085504 5 212 0.0 0.0 0.00 0.03 0.00 76 1013.4
20260508084504 5 212 0.0 0.0 0.00 0.03 0.00 75 1013.4
20260508084004 5 212 0.0 0.0 0.00 0.03 0.00 74 1013.3
20260508083504 5 212 0.0 0.0 0.00 0.03 0.00 73 1013.3
20260508083004 5 212 0.0 0.0 0.00 0.03 0.00 73 1013.2
20260508082504 5 212 0.0 0.0 0.00 0.03 0.00 72 1013.2
20260508082003 6 212 0.0 0.0 0.00 0.03 0.00 73 1013.2
20260508081504 6 212 0.0 0.0 0.00 0.03 0.00 72 1013.3
20260508081005 6 212 0.0 0.0 0.00 0.03 0.00 72 1013.2
20260508080504 6 212 0.0 0.0 0.00 0.03 0.00 72 1013.2
20260508080004 6 212 0.0 0.0 0.00 0.03 0.00 71 1013.2
20260508075505 6 212 0.0 0.0 0.00 0.03 0.00 71 1013.2
20260508074504 6 212 0.0 0.0 0.00 0.03 0.00 70 1013.2
20260508074004 6 212 0.0 0.0 0.00 0.03 0.00 69 1013.2
20260508073504 6 212 0.0 0.0 0.00 0.03 0.00 69 1013.3
20260508072504 7 212 0.0 0.0 0.00 0.03 0.00 68 1013.3
20260508072004 7 221 0.0 0.0 0.00 0.03 0.00 68 1013.3
20260508071504 7 221 0.0 0.0 0.00 0.03 0.00 67 1013.3
20260508070505 7 233 0.0 0.0 0.00 0.03 0.00 66 1013.5
20260508070005 7 234 0.0 0.0 0.00 0.03 0.00 66 1013.6
20260508065504 7 236 0.0 0.0 0.00 0.03 0.00 66 1013.7
20260508065004 7 247 0.0 0.0 0.00 0.03 0.00 66 1013.8
20260508064504 7 248 0.0 0.0 0.00 0.03 0.00 66 1013.9
20260508064004 7 248 0.0 0.0 0.00 0.03 0.00 66 1013.9
20260508063504 7 248 0.0 3.2 0.00 0.03 0.00 67 1013.9
20260508062504 7 248 1.6 4.8 0.00 0.03 0.00 68 1013.9
20260508062004 7 248 3.2 4.8 0.00 0.03 0.00 68 1013.9
20260508061504 7 227 0.0 4.8 0.00 0.03 0.00 68 1014.0
20260508060505 7 231 1.6 4.8 0.00 0.03 0.00 68 1014.0
20260508060004 7 222 1.6 4.8 0.00 0.03 0.00 68 1014.0
20260508055504 7 223 1.6 4.8 0.00 0.03 0.00 68 1014.1
20260508055004 7 241 0.0 3.2 0.00 0.03 0.00 68 1014.1
20260508054504 7 245 0.0 3.2 0.00 0.03 0.00 68 1014.1
20260508054004 7 224 0.0 0.0 0.00 0.03 0.00 69 1014.0
20260508053504 7 223 0.0 0.0 0.00 0.03 0.00 69 1014.0
20260508053004 7 221 0.0 0.0 0.00 0.03 0.00 68 1013.9
20260508052504 7 221 0.0 0.0 0.00 0.03 0.00 68 1013.9
20260508052004 7 221 0.0 3.2 0.00 0.03 0.00 68 1013.9
20260508051504 7 221 0.0 4.8 0.00 0.03 0.00 68 1013.9
20260508051004 7 221 1.6 4.8 0.00 0.03 0.00 68 1013.9
20260508050504 7 222 1.6 3.2 0.00 0.03 0.00 68 1013.9
20260508045504 7 219 1.6 4.8 0.00 0.03 0.00 68 1013.9
20260508045004 7 219 1.6 4.8 0.00 0.03 0.00 68 1014.0
20260508044504 7 227 1.6 4.8 0.00 0.03 0.00 69 1013.9
20260508044004 7 229 1.6 4.8 0.00 0.03 0.00 69 1013.8
20260508043504 7 225 3.2 4.8 0.00 0.03 0.00 70 1013.8
20260508043004 7 227 3.2 4.8 0.00 0.03 0.00 70 1013.9
20260508042504 7 218 1.6 4.8 0.00 0.03 0.00 71 1013.8
20260508042004 7 218 1.6 4.8 0.00 0.03 0.00 71 1013.8
20260508041505 7 222 1.6 4.8 0.00 0.03 0.00 71 1013.8
20260508041004 6 221 0.0 3.2 0.00 0.03 0.00 72 1013.9
20260508040504 6 221 1.6 4.8 0.00 0.03 0.00 73 1013.9
20260508040004 6 221 1.6 4.8 0.00 0.03 0.00 73 1013.9
20260508035504 6 221 1.6 4.8 0.00 0.03 0.03 73 1013.9
20260508035004 6 221 1.6 4.8 0.00 0.03 0.03 74 1013.9
20260508034504 6 229 3.2 4.8 0.00 0.03 0.03 74 1014.0
20260508034004 6 241 1.6 3.2 0.00 0.03 0.03 76 1014.0
20260508032504 6 239 0.0 3.2 0.00 0.03 0.03 77 1013.8
20260508031504 6 242 0.0 0.0 0.00 0.03 0.03 76 1013.9
20260508031004 6 242 0.0 0.0 0.00 0.03 0.03 75 1013.9
20260508030504 6 242 0.0 0.0 0.00 0.03 0.03 76 1013.8
20260508030005 6 242 0.0 0.0 0.00 0.03 0.03 76 1013.8
20260508025004 6 242 0.0 0.0 0.00 0.03 0.03 74 1013.8
20260508024504 6 242 0.0 0.0 0.00 0.03 0.03 75 1013.8
20260508024004 7 242 0.0 0.0 0.00 0.03 0.03 75 1013.8
20260508023504 7 242 0.0 0.0 0.00 0.03 0.03 75 1013.9
20260508023004 7 242 0.0 3.2 0.00 0.03 0.03 76 1013.9
20260508022504 7 242 0.0 3.2 0.00 0.03 0.03 75 1013.6
20260508022004 7 242 1.6 3.2 0.00 0.03 0.03 73 1013.7
20260508021504 7 242 0.0 0.0 0.00 0.03 0.03 73 1013.8
20260508021004 7 242 0.0 0.0 0.00 0.03 0.03 72 1013.9
20260508020504 7 242 0.0 0.0 0.00 0.03 0.03 71 1014.0
20260508020005 7 242 0.0 1.6 0.00 0.03 0.03 70 1013.9
20260508015505 8 242 0.0 1.6 0.00 0.03 0.03 70 1013.9
20260508015004 8 242 0.0 1.6 0.00 0.03 0.03 70 1014.0
20260508014004 8 242 0.0 1.6 0.00 0.03 0.03 67 1013.7
20260508013504 8 242 0.0 1.6 0.00 0.03 0.03 66 1013.7
20260508013004 9 242 0.0 1.6 0.00 0.03 0.03 65 1013.7
20260508011504 10 242 0.0 0.0 0.00 0.03 0.03 61 1013.6
20260508011004 10 242 0.0 0.0 0.00 0.03 0.03 60 1013.5
20260508010503 10 242 0.0 0.0 0.00 0.03 0.03 59 1013.5
20260508005504 11 242 0.0 3.2 0.00 0.03 0.03 56 1013.6
20260508005004 11 242 1.6 3.2 0.00 0.03 0.03 57 1013.4
20260508004004 12 242 0.0 0.0 0.00 0.03 0.03 51 1013.5
20260508003504 12 242 0.0 0.0 0.00 0.03 0.03 50 1013.5
20260508002504 13 95 0.0 1.6 0.00 0.03 0.03 51 1013.4
20260508002004 13 25 0.0 1.6 0.00 0.03 0.03 51 1013.4
20260508001504 13 41 0.0 1.6 0.00 0.03 0.03 46 1013.4
20260508001004 13 41 0.0 3.2 0.00 0.03 0.03 45 1013.5
20260508000004 14 325 3.2 4.8 0.00 0.03 0.03 42 1013.4
20260507235005 15 301 4.8 11.3 0.00 0.03 0.03 40 1013.3
20260507234504 15 331 4.8 4.8 0.00 0.03 0.03 40 1013.4
20260507234004 15 2 1.6 3.2 0.00 0.03 0.03 42 1013.3
20260507233504 15 358 1.6 4.8 0.00 0.03 0.03 43 1013.2
20260507233004 15 359 1.6 4.8 0.00 0.03 0.03 37 1013.1
20260507232004 15 8 0.0 4.8 0.00 0.03 0.03 38 1013.2
20260507231504 15 8 1.6 11.3 0.00 0.03 0.03 39 1013.3
20260507231004 15 23 4.8 11.3 0.00 0.03 0.03 39 1013.3
20260507230504 15 327 4.8 14.5 0.00 0.03 0.03 41 1013.4
20260507230005 15 319 6.4 19.3 0.00 0.03 0.03 41 1013.3
20260507225504 15 350 12.9 19.3 0.00 0.03 0.03 39 1013.3
20260507225004 15 343 8.0 16.1 0.00 0.03 0.03 41 1013.3
20260507224504 15 337 1.6 14.5 0.00 0.03 0.03 42 1013.3
20260507224005 15 348 3.2 16.1 0.00 0.03 0.03 41 1013.2
20260507223004 15 291 9.7 20.9 0.00 0.03 0.03 41 1013.3
20260507222504 15 311 11.3 20.9 0.00 0.03 0.03 40 1013.3
20260507222005 15 316 14.5 24.1 0.00 0.03 0.03 41 1013.3
20260507221504 15 308 16.1 24.1 0.00 0.03 0.03 40 1013.3
20260507220504 15 321 11.3 20.9 0.00 0.03 0.03 38 1013.4
20260507215504 15 345 9.7 19.3 0.00 0.03 0.03 40 1013.3
20260507215004 15 330 11.3 24.1 0.00 0.03 0.03 42 1013.3
20260507214504 15 340 9.7 24.1 0.00 0.03 0.03 43 1013.3
20260507214004 15 271 9.7 24.1 0.00 0.03 0.03 40 1013.2
20260507213504 15 329 6.4 16.1 0.00 0.03 0.03 41 1013.3
20260507213004 15 7 4.8 12.9 0.00 0.03 0.03 41 1013.3
20260507212504 15 39 4.8 19.3 0.00 0.03 0.03 40 1013.3
20260507210503 15 356 8.0 25.7 0.00 0.03 0.03 41 1013.1
20260507205504 15 4 4.8 33.8 0.00 0.03 0.03 40 1013.1
20260507205004 15 4 11.3 33.8 0.00 0.03 0.03 40 1013.1
20260507204505 15 332 19.3 29.0 0.00 0.03 0.03 41 1013.1
20260507204004 15 1 14.5 25.7 0.00 0.03 0.03 43 1012.9
20260507203504 15 325 11.3 22.5 0.00 0.03 0.03 39 1013.2
20260507203004 15 330 16.1 22.5 0.00 0.03 0.03 40 1013.1
20260507202504 15 344 12.9 22.5 0.00 0.03 0.03 43 1013.1
20260507202004 15 347 14.5 22.5 0.00 0.03 0.03 43 1013.1
20260507201503 15 346 11.3 22.5 0.00 0.03 0.03 42 1013.1
20260507201004 15 309 8.0 27.4 0.00 0.03 0.03 45 1013.1